Погода в Галиче

Украина / Ивано-Франковская область     49°06′49″N   24°43′52″E
темп.,
°C
ветер,
м/с
пор.,
м/с
влажн.,
%
обл.,
%
осадки,
мм/ч
давл.,
гПа
погр.,
м
27 ноября, сб
сб2723:00+3юв2381100 0.0 99471
02:00+5ююв3877100 0.0 993165
05:00+7ююз2579100 0.0 993111
08:00+5з2379100 0.0 99546
11:00+7сз236349 0.0 997364
14:00+10зюз265399 0.0 9981139
17:00+6ю127498 0.0 99916
20:00+4ююз228083 0.0 100117
28 ноября, вс
вс2823:00+5ююв228143 0.0 100214
02:00+4ююв3385100 0.0 100138
05:00+5вюв1183100 0.4 100114
08:00+5всв1183100 0.6 100110
11:00+5юв0185100 0.9 100149
14:00+6вюв1186100 1.3 100033
17:00+5вюв2287100 0.0 99924
20:00+5юв3786100 0.0 998130
29 ноября, пн
пн2923:00+5вюв3982100 0.0 995193
02:00+5юв3984100 0.0 993215
05:00+5ююв228493 0.0 99022
08:00+5вюв228572 0.1 98930
11:00+2сз71295100 0.5 993428
14:00+3сз8137689 0.6 994651
17:00+2зсз81472100 0.1 996839
20:00+2зсз7136821 0.1 998911
30 ноября, вт
вт3023:00+1зсз7146625 0.0 999984
02:00+1зсз8146655 0.0 1001907
05:00+1з714669 0.0 1001829
08:00+1з9166513 0.0 10031164
11:00+2зсз9156457 0.0 10061258
14:00+3зсз9146299 0.0 10061493
17:00+1зсз6126682 0.0 1007866
20:00−2з24750 0.0 100784
1 декабря, ср
ср123:00−2ю236984 0.0 100542
02:00+3зюз91849100 0.0 10021236
05:00+3зюз101751100 0.0 1002903
08:00+3з8155891 0.0 1004841
11:00+3зсз9176278 0.0 10061740
14:00+4зсз8145568 0.1 10071560
17:00+2зсз4867100 0.0 1007180
20:00+1ю357096 0.0 1006100